"TOA5","MOW","CPU:UNC_MeetingWaters","DataHourly"
"TIMESTAMP","SondeTempC","SpCond","DOSat","DOmg","pH","Turb","BattVolt_Min"
"TS","","","","","","",""
"","Smp","Smp","Smp","Smp","Smp","Smp","Min"
"2002-05-01 00:00:00",16.2999992371,0.182999998331,91.9000015259,9.01000022888,7.42999982834,-1.0,12.6499996185
"2002-05-01 01:00:00",16.1900005341,0.180999994278,91.4000015259,8.98999977112,7.44000005722,-0.800000011921,12.6300001144
"2002-05-01 02:00:00",16.1299991608,0.180999994278,92.5999984741,9.10999965668,7.42999982834,-1.10000002384,12.6000003815
"2002-05-01 03:00:00",16.1200008392,0.179000005126,91.9000015259,9.03999996185,7.44000005722,9.0,12.5799999237
"2002-05-01 04:00:00",16.0599994659,0.177000001073,93.0999984741,9.17000007629,7.42999982834,-1.0,12.5600004196
"2002-05-01 05:00:00",16.0,0.17499999702,93.0999984741,9.18000030518,7.42000007629,-0.899999976158,12.529999733
"2002-05-01 06:00:00",16.0,0.282000005245,93.6999969482,9.23999977112,7.44000005722,-0.800000011921,12.5
"2002-05-01 07:00:00",15.970000267,0.323000013828,93.3000030518,9.19999980927,7.42000007629,-0.699999988079,12.4799995422
"2002-05-01 08:00:00",15.9899997711,0.188999995589,96.5,9.52000045776,7.44000005722,-0.800000011921,12.4899997711
"2002-05-01 09:00:00",16.0499992371,0.172999992967,98.8000030518,9.73999977112,7.46999979019,-0.600000023842,12.5600004196
"2002-05-01 10:00:00",16.2999992371,0.17499999702,104.599998474,10.2600002289,7.51999998093,-0.899999976158,13.0799999237
"2002-05-01 11:00:00",17.1499996185,0.185000002384,110.599998474,10.6499996185,7.67000007629,-1.10000002384,13.1000003815
"2002-05-01 12:00:00",18.1100006104,0.238999992609,105.900001526,10.0,7.69999980927,-1.0,13.1499996185
"2002-05-01 13:00:00",19.2600002289,0.215000003576,114.599998474,10.5699996948,7.80999994278,-1.10000002384,13.1000003815
"2002-05-01 14:00:00",19.7199993134,0.202999994159,117.800003052,10.7700004578,7.80000019073,-1.10000002384,13.0799999237
"2002-05-01 15:00:00",19.7999992371,0.202999994159,111.0,10.1300001144,7.76999998093,-1.10000002384,12.9499998093
"2002-05-01 16:00:00",19.9300003052,0.199000000954,111.699996948,10.1700000763,7.71999979019,-1.10000002384,13.0200004578
"2002-05-01 17:00:00",19.6499996185,0.207000002265,106.099998474,9.71000003815,7.71999979019,-0.40000000596,12.8599996567
"2002-05-01 18:00:00",19.4599990845,0.202999994159,97.6999969482,8.97000026703,7.65000009537,-0.5,12.8100004196
"2002-05-01 19:00:00",19.25,0.202999994159,93.3000030518,8.60999965668,7.57000017166,-0.899999976158,12.7600002289
"2002-05-01 20:00:00",18.9500007629,0.193000003695,89.0,8.26000022888,7.48999977112,-1.10000002384,12.720000267
"2002-05-01 21:00:00",18.7399997711,0.187000006437,89.1999969482,8.31000041962,7.44000005722,-1.0,12.7100000381
"2002-05-01 22:00:00",18.5900001526,0.185000002384,88.9000015259,8.31000041962,7.40999984741,-1.0,12.6800003052
"2002-05-01 23:00:00",18.4599990845,0.184000000358,89.4000015259,8.38000011444,7.36000013351,-1.0,12.6700000763
"2002-05-02 00:00:00",18.4099998474,0.184000000358,89.1999969482,8.36999988556,7.36000013351,-1.0,12.6400003433
"2002-05-02 01:00:00",18.4099998474,0.181999996305,88.6999969482,8.31999969482,7.38000011444,0.0,12.6300001144
"2002-05-02 02:00:00",18.3899993896,0.181999996305,90.8000030518,8.52999973297,7.38000011444,-0.600000023842,12.6199998856
"2002-05-02 03:00:00",18.4200000763,0.32800000906,84.5,7.92999982834,7.32999992371,5.40000009537,12.6000003815
"2002-05-02 04:00:00",18.2399997711,0.345999985933,88.5999984741,8.32999992371,7.30000019073,4.40000009537,12.5799999237
"2002-05-02 05:00:00",18.3899993896,0.38299998641,76.8000030518,7.19999980927,7.28999996185,12.8999996185,12.5600004196
"2002-05-02 06:00:00",18.3600006104,0.344999998808,74.5999984741,7.0,7.23000001907,7.80000019073,12.5399999619
"2002-05-02 07:00:00",18.3299999237,0.24699999392,73.9000015259,6.94999980927,7.19000005722,4.19999980927,12.529999733
"2002-05-02 08:00:00",18.4599990845,0.209999993443,75.1999969482,7.05000019073,7.21000003815,2.40000009537,12.5699996948
"2002-05-02 09:00:00",18.6100006104,0.308999985456,79.1999969482,7.40000009537,7.21999979019,2.59999990463,12.8599996567
"2002-05-02 10:00:00",19.0100002289,0.240999996662,87.3000030518,8.09000015259,7.28000020981,1.60000002384,13.1700000763
"2002-05-02 11:00:00",19.3199996948,0.386000007391,88.5,8.14999961853,7.30999994278,1.39999997616,13.1599998474
"2002-05-02 12:00:00",19.5799999237,0.391999989748,88.8000030518,8.13000011444,7.30999994278,1.29999995232,13.1499996185
"2002-05-02 13:00:00",20.2900009155,0.347999989986,94.8000030518,8.56000041962,7.38000011444,1.60000002384,13.1000003815
"2002-05-02 14:00:00",20.8199996948,0.335000008345,94.4000015259,8.43999958038,7.36000013351,0.699999988079,13.0699996948
"2002-05-02 15:00:00",21.1399993896,0.228000000119,92.6999969482,8.23999977112,7.38999986649,0.20000000298,13.0100002289
"2002-05-02 16:00:00",21.3799991608,0.212999999523,94.4000015259,8.35000038147,7.38999986649,0.0,13.029999733
"2002-05-02 17:00:00",21.3999996185,0.282999992371,90.0,7.96000003815,7.36000013351,-0.300000011921,12.9399995804
"2002-05-02 18:00:00",21.2999992371,0.195999994874,86.9000015259,7.69999980927,7.34000015259,-0.20000000298,12.8299999237
"2002-05-02 19:00:00",21.0799999237,0.167999997735,85.0,7.55999994278,7.32000017166,-0.300000011921,12.7700004578
"2002-05-02 20:00:00",20.8799991608,0.158999994397,82.0,7.32000017166,7.28000020981,-0.40000000596,12.7399997711
"2002-05-02 21:00:00",20.6900005341,0.159999996424,80.4000015259,7.21000003815,7.25,-0.300000011921,12.720000267
"2002-05-02 22:00:00",20.5200004578,0.158999994397,80.0999984741,7.21000003815,7.25,-0.600000023842,12.6999998093
"2002-05-02 23:00:00",20.3299999237,0.158000007272,81.4000015259,7.34999990463,7.26000022888,-0.699999988079,12.6800003052
"2002-05-03 00:00:00",20.1700000763,0.158000007272,80.8000030518,7.32000017166,7.26999998093,-0.699999988079,12.6700000763
"2002-05-03 01:00:00",20.0,0.298000007868,82.0,7.44999980927,7.26000022888,-0.5,12.6499996185
"2002-05-03 02:00:00",19.7800006866,0.215000003576,84.0999984741,7.67000007629,7.26999998093,0.40000000596,12.6199998856
"2002-05-03 03:00:00",19.5799999237,0.159999996424,83.5999984741,7.67000007629,7.28000020981,-0.699999988079,12.6000003815
"2002-05-03 04:00:00",19.4200000763,0.163000002503,83.9000015259,7.71999979019,7.28999996185,-0.899999976158,12.5699996948
"2002-05-03 05:00:00",19.2600002289,0.20000000298,84.9000015259,7.82999992371,7.30000019073,-0.899999976158,12.5600004196
"2002-05-03 06:00:00",19.1000003815,0.181999996305,84.6999969482,7.84000015259,7.34000015259,-0.899999976158,12.5399999619
"2002-05-03 07:00:00",18.9400005341,0.202000007033,86.1999969482,8.01000022888,7.36000013351,-0.300000011921,12.5200004578
"2002-05-03 08:00:00",18.7399997711,0.193000003695,87.8000030518,8.18000030518,7.38000011444,-1.0,12.5100002289
"2002-05-03 09:00:00",18.5499992371,0.192000001669,90.6999969482,8.48999977112,7.42999982834,-1.0,12.6999998093
"2002-05-03 10:00:00",18.3700008392,0.194999992847,94.9000015259,8.90999984741,7.46999979019,-0.20000000298,12.8400001526
"2002-05-03 11:00:00",18.3099994659,0.194000005722,97.8000030518,9.18999958038,7.5,-1.10000002384,12.9200000763
"2002-05-03 12:00:00",18.1499996185,0.252999991179,97.3000030518,9.18000030518,7.5,-0.40000000596,13.0699996948
"2002-05-03 13:00:00",18.2299995422,0.340999990702,103.900001526,9.77999973297,7.51999998093,-0.800000011921,13.3000001907
"2002-05-03 14:00:00",18.3600006104,0.181999996305,105.599998474,9.92000007629,7.55999994278,-0.800000011921,13.279999733
"2002-05-03 15:00:00",18.4200000763,0.177000001073,104.5,9.81000041962,7.57999992371,-0.699999988079,12.9399995804
"2002-05-03 16:00:00",18.3400001526,0.177000001073,105.400001526,9.89999961853,7.59999990463,-1.0,12.9399995804
"2002-05-03 17:00:00",18.0699996948,0.180999994278,101.400001526,9.57999992371,7.59999990463,-1.10000002384,12.8299999237
"2002-05-03 18:00:00",18.0,0.182999998331,98.4000015259,9.31999969482,7.55000019073,-0.800000011921,12.7700004578
"2002-05-03 19:00:00",17.7600002289,0.352999985218,95.0999984741,9.03999996185,7.53000020981,0.40000000596,12.720000267
"2002-05-03 20:00:00",17.5200004578,0.230000004172,94.6999969482,9.05000019073,7.5,-0.699999988079,12.7100000381
"2002-05-03 21:00:00",17.2900009155,0.209000006318,93.9000015259,9.02000045776,7.48000001907,-0.699999988079,12.6899995804
"2002-05-03 22:00:00",17.0699996948,0.212999999523,91.1999969482,8.78999996185,7.46999979019,-0.800000011921,12.6700000763
"2002-05-03 23:00:00",16.7399997711,0.215000003576,91.5999984741,8.89999961853,7.46999979019,-0.899999976158,12.6499996185
"2002-05-04 00:00:00",16.6499996185,0.207000002265,92.5,9.0,7.48000001907,-0.699999988079,12.6300001144
"2002-05-04 01:00:00",16.5,0.193000003695,92.9000015259,9.06999969482,7.46999979019,-0.800000011921,12.6000003815
"2002-05-04 02:00:00",16.3500003815,0.180999994278,93.5999984741,9.17000007629,7.42999982834,-0.800000011921,12.5699996948
"2002-05-04 03:00:00",16.2099990845,0.00499999988824,92.4000015259,9.07999992371,7.40999984741,-0.600000023842,12.5399999619
"2002-05-04 04:00:00",16.1499996185,0.184000000358,92.8000030518,9.11999988556,7.40999984741,-0.899999976158,12.5200004578
"2002-05-04 05:00:00",16.1299991608,0.187000006437,93.4000015259,9.18999958038,7.40000009537,-1.0,12.4799995422
"2002-05-04 06:00:00",15.8400001526,0.196999996901,93.5999984741,9.27000045776,7.40000009537,-0.699999988079,12.4600000381
"2002-05-04 07:00:00",15.6400003433,0.00999999977648,92.6999969482,9.22000026703,7.42000007629,-0.699999988079,12.4600000381
"2002-05-04 08:00:00",15.6099996567,0.441000014544,91.5999984741,9.10999965668,7.44999980927,10.5,12.4399995804
"2002-05-04 09:00:00",16.1800003052,0.203999996185,96.3000030518,9.46000003815,7.34999990463,79.8000030518,12.4899997711
"2002-05-04 10:00:00",16.1900005341,0.158000007272,97.0999984741,9.53999996185,7.21999979019,42.2999992371,12.6700000763
"2002-05-04 11:00:00",16.2099990845,0.155000001192,92.5999984741,9.09000015259,7.13999986649,24.1000003815,12.5900001526
"2002-05-04 12:00:00",16.0799999237,0.16400000453,88.0,8.67000007629,7.05000019073,30.2999992371,12.8000001907
"2002-05-04 13:00:00",16.0,0.180999994278,88.6999969482,8.75,6.98999977112,19.8999996185,12.6599998474
"2002-05-04 14:00:00",15.7100000381,0.17499999702,92.5,9.18000030518,7.03000020981,59.5999984741,12.529999733
"2002-05-04 15:00:00",15.7600002289,0.0610000006855,106.0,10.5100002289,6.98999977112,127.800003052,12.470000267
"2002-05-04 16:00:00",15.2899999619,0.0619999989867,103.5,10.3699998856,6.92999982834,75.6999969482,12.4399995804
"2002-05-04 17:00:00",15.2700004578,0.082000002265,102.599998474,10.279999733,6.86999988556,54.7999992371,12.4399995804
"2002-05-04 18:00:00",15.3800001144,0.0989999994636,100.0,10.0,6.88000011444,31.5,12.4300003052
"2002-05-04 19:00:00",15.3699998856,0.103000000119,97.0,9.71000003815,6.86999988556,27.6000003815,12.4300003052
"2002-05-04 20:00:00",15.279999733,0.115000002086,94.6999969482,9.48999977112,6.86999988556,19.7999992371,12.4200000763
"2002-05-04 21:00:00",15.1499996185,0.12800000608,93.1999969482,9.36999988556,6.86000013351,18.7000007629,12.4200000763
"2002-05-04 22:00:00",14.970000267,0.137999996543,92.0,9.27999973297,6.84999990463,15.3999996185,12.4200000763
"2002-05-04 23:00:00",14.8599996567,0.149000003934,91.5,9.25,6.88000011444,13.8999996185,12.4200000763
"2002-05-05 00:00:00",14.720000267,0.163000002503,91.9000015259,9.31999969482,6.90000009537,11.3000001907,12.3999996185
"2002-05-05 01:00:00",14.6300001144,0.180999994278,93.5999984741,9.51000022888,6.94000005722,8.69999980927,12.4099998474
"2002-05-05 02:00:00",14.5500001907,0.232999995351,92.6999969482,9.43000030518,7.0,6.09999990463,12.3999996185
"2002-05-05 03:00:00",14.5,0.305000007153,93.5999984741,9.52999973297,7.07000017166,4.69999980927,12.3999996185
"2002-05-05 04:00:00",14.4300003052,0.349000006914,92.5999984741,9.44999980927,7.15000009537,3.90000009537,12.3900003433
"2002-05-05 05:00:00",14.3500003815,0.363000005484,72.9000015259,7.44999980927,7.19000005722,3.20000004768,12.3900003433
"2002-05-05 06:00:00",14.220000267,0.356999993324,68.8000030518,7.05000019073,7.21999979019,2.5,12.3800001144
"2002-05-05 07:00:00",14.1000003815,0.354000002146,88.1999969482,9.06000041962,7.23999977112,2.20000004768,12.3800001144
"2002-05-05 08:00:00",14.0399999619,0.342999994755,95.0999984741,9.78999996185,7.26999998093,1.79999995232,12.3999996185
"2002-05-05 09:00:00",14.0500001907,0.319999992847,97.1999969482,9.98999977112,7.28000020981,1.39999997616,12.6199998856
"2002-05-05 10:00:00",14.1800003052,0.298000007868,99.4000015259,10.1999998093,7.30999994278,1.29999995232,12.9799995422
"2002-05-05 11:00:00",14.4899997711,0.289999991655,103.0,10.5,7.30999994278,1.0,13.3999996185
"2002-05-05 12:00:00",14.9399995804,0.28900000453,106.099998474,10.6999998093,7.34000015259,0.899999976158,13.279999733
"2002-05-05 13:00:00",15.470000267,0.29699999094,107.800003052,10.75,7.36000013351,0.600000023842,13.3299999237
"2002-05-05 14:00:00",16.1000003815,0.326000005007,107.800003052,10.6000003815,7.40000009537,0.300000011921,13.279999733
"2002-05-05 15:00:00",16.6700000763,0.38299998641,107.300003052,10.4300003052,7.40000009537,0.300000011921,13.2399997711
"2002-05-05 16:00:00",16.9599990845,0.405999988317,105.800003052,10.2299995422,7.46000003815,-0.10000000149,13.2100000381
"2002-05-05 17:00:00",17.0,0.398000001907,102.599998474,9.89999961853,7.46999979019,-0.20000000298,12.9399995804
"2002-05-05 18:00:00",16.8299999237,0.384000003338,100.099998474,9.69999980927,7.46000003815,0.20000000298,12.8500003815
"2002-05-05 19:00:00",16.5699996948,0.372000008821,98.3000030518,9.57999992371,7.44000005722,0.300000011921,12.7899999619
"2002-05-05 20:00:00",16.2999992371,0.368000000715,96.9000015259,9.5,7.42999982834,0.600000023842,12.75
"2002-05-05 21:00:00",16.0300006866,0.363000005484,95.9000015259,9.44999980927,7.40999984741,-0.300000011921,12.7299995422
"2002-05-05 22:00:00",15.7899999619,0.363999992609,95.5999984741,9.47000026703,7.40000009537,-0.5,12.6999998093
"2002-05-05 23:00:00",15.5500001907,0.349000006914,95.0999984741,9.47000026703,7.38999986649,-0.5,12.6800003052
"2002-05-06 00:00:00",15.3100004196,0.344000011683,95.1999969482,9.52000045776,7.36999988556,-0.600000023842,12.6599998474
"2002-05-06 01:00:00",15.1000003815,0.324999988079,95.5,9.60000038147,7.36999988556,-0.5,12.6400003433
"2002-05-06 02:00:00",14.8199996948,0.32800000906,95.4000015259,9.64000034332,7.36000013351,-0.600000023842,12.6199998856
"2002-05-06 03:00:00",14.6099996567,0.319000005722,96.0,9.76000022888,7.36999988556,-0.5,12.6099996567
"2002-05-06 04:00:00",14.3900003433,0.335000008345,96.1999969482,9.81999969482,7.36000013351,-0.5,12.5900001526
"2002-05-06 05:00:00",14.1400003433,0.321000009775,96.1999969482,9.88000011444,7.36000013351,-0.300000011921,12.5900001526
"2002-05-06 06:00:00",13.9600000381,0.321000009775,97.0999984741,10.0100002289,7.34999990463,0.800000011921,12.5799999237
"2002-05-06 07:00:00",13.6999998093,0.321000009775,97.9000015259,10.1499996185,7.36000013351,-0.40000000596,12.5600004196
"2002-05-06 08:00:00",13.5100002289,0.323000013828,99.0999984741,10.3199996948,7.38000011444,-0.10000000149,12.5600004196
"2002-05-06 09:00:00",13.7100000381,0.324999988079,100.699996948,10.4399995804,7.42000007629,-0.5,12.6700000763
"2002-05-06 10:00:00",14.2600002289,0.324999988079,103.300003052,10.5699996948,7.44999980927,-0.600000023842,13.4200000763
"2002-05-06 11:00:00",15.279999733,0.321000009775,106.599998474,10.6700000763,7.53999996185,-0.5,13.3000001907
"2002-05-06 12:00:00",16.5,0.308999985456,109.5,10.6899995804,7.55000019073,-0.5,13.2100000381
"2002-05-06 13:00:00",17.3199996948,0.298999994993,109.599998474,10.5200004578,7.51000022888,-0.699999988079,13.1800003052
"2002-05-06 14:00:00",18.0300006866,0.319999992847,109.5,10.3500003815,7.5,-0.699999988079,13.1499996185
"2002-05-06 15:00:00",18.1000003815,0.317999988794,107.5,10.1499996185,7.48000001907,-0.699999988079,13.1499996185
"2002-05-06 16:00:00",18.0900001526,0.263000011444,107.5,10.1499996185,7.5,-0.600000023842,13.1400003433
"2002-05-06 17:00:00",17.7999992371,0.193000003695,104.599998474,9.93999958038,7.48999977112,-0.800000011921,12.9300003052
"2002-05-06 18:00:00",17.7000007629,0.180000007153,101.300003052,9.64000034332,7.48000001907,-0.600000023842,12.8299999237
"2002-05-06 19:00:00",17.5499992371,0.187999993563,98.8000030518,9.43000030518,7.42999982834,-0.600000023842,12.779999733
"2002-05-06 20:00:00",17.3400001526,0.188999995589,96.8000030518,9.28999996185,7.42999982834,-0.300000011921,12.75
"2002-05-06 21:00:00",17.1599998474,0.21400000155,94.4000015259,9.09000015259,7.40999984741,-0.699999988079,12.720000267
"2002-05-06 22:00:00",17.0499992371,0.192000001669,94.0,9.06999969482,7.38999986649,-0.5,12.6999998093
"2002-05-06 23:00:00",16.9400005341,0.186000004411,93.5,9.03999996185,7.38000011444,16.2999992371,12.6700000763
"2002-05-07 00:00:00",16.8799991608,0.182999998331,93.0,9.01000022888,7.36999988556,-0.600000023842,12.6700000763
"2002-05-07 01:00:00",16.7999992371,0.180999994278,91.5,8.86999988556,7.34000015259,7.69999980927,12.6499996185
"2002-05-07 02:00:00",16.7399997711,0.185000002384,91.9000015259,8.92000007629,7.34000015259,0.5,12.6400003433
"2002-05-07 03:00:00",16.6800003052,0.305000007153,87.1999969482,8.47999954224,7.30999994278,0.699999988079,12.6199998856
"2002-05-07 04:00:00",16.5599994659,0.209999993443,89.5,8.72999954224,7.30999994278,-0.600000023842,12.6099996567
"2002-05-07 05:00:00",16.4300003052,0.178000003099,91.4000015259,8.93999958038,7.30999994278,-0.699999988079,12.5900001526
"2002-05-07 06:00:00",16.2800006866,0.179000005126,92.3000030518,9.06000041962,7.32000017166,8.5,12.5900001526
"2002-05-07 07:00:00",16.1499996185,0.190999999642,93.1999969482,9.15999984741,7.34000015259,-0.300000011921,12.5699996948
"2002-05-07 08:00:00",16.2099990845,0.243000000715,95.8000030518,9.40999984741,7.38000011444,-0.20000000298,12.5900001526
"2002-05-07 09:00:00",16.4099998474,0.238999992609,98.9000015259,9.67000007629,7.42000007629,-0.40000000596,12.7899999619
"2002-05-07 10:00:00",16.7700004578,0.326000005007,101.900001526,9.88000011444,7.44999980927,-0.699999988079,13.2899999619
"2002-05-07 11:00:00",17.6200008392,0.330000013113,106.400001526,10.1499996185,7.55000019073,-0.600000023842,13.1800003052
"2002-05-07 12:00:00",18.7099990845,0.305999994278,108.800003052,10.1400003433,7.57000017166,-0.699999988079,13.1099996567
"2002-05-07 13:00:00",19.5900001526,0.335000008345,109.0,9.97999954224,7.55000019073,-0.600000023842,13.0600004196
"2002-05-07 14:00:00",20.2999992371,0.352999985218,107.599998474,9.72000026703,7.57000017166,-0.300000011921,13.0200004578
"2002-05-07 15:00:00",20.8099994659,0.358000010252,105.900001526,9.47000026703,7.61000013351,-0.40000000596,13.0
"2002-05-07 16:00:00",20.7000007629,0.426999986172,103.699996948,9.28999996185,7.57000017166,-0.600000023842,13.0
"2002-05-07 17:00:00",20.5599994659,0.486999988556,100.0,8.97999954224,7.55999994278,-0.5,12.9799995422
"2002-05-07 18:00:00",20.3899993896,0.467999994755,96.6999969482,8.72000026703,7.57000017166,-0.40000000596,12.8100004196
"2002-05-07 19:00:00",20.1000003815,0.273999989033,93.5,8.47999954224,7.53999996185,-0.40000000596,12.7600002289
"2002-05-07 20:00:00",19.8799991608,0.266000002623,90.1999969482,8.22000026703,7.48000001907,-0.699999988079,12.7399997711
"2002-05-07 21:00:00",19.7299995422,0.321999996901,87.6999969482,8.01000022888,7.42000007629,-0.600000023842,12.720000267
"2002-05-07 22:00:00",19.6299991608,0.25,86.5999984741,7.92000007629,7.38000011444,-0.600000023842,12.6999998093
"2002-05-07 23:00:00",19.5300006866,0.337000012398,87.0,7.98000001907,7.34999990463,-0.5,12.6800003052
"2002-05-08 00:00:00",19.4699993134,0.335000008345,87.1999969482,8.01000022888,7.34000015259,-0.40000000596,12.6599998474
"2002-05-08 01:00:00",19.3500003815,0.32800000906,89.0999984741,8.19999980927,7.34000015259,-0.40000000596,12.6400003433
"2002-05-08 02:00:00",19.1900005341,0.333999991417,89.5999984741,8.27000045776,7.36000013351,-0.20000000298,12.6199998856
"2002-05-08 03:00:00",19.0,0.33599999547,89.9000015259,8.34000015259,7.36000013351,-0.40000000596,12.6099996567
"2002-05-08 04:00:00",18.7800006866,0.324999988079,90.0999984741,8.39000034332,7.36999988556,0.10000000149,12.6000003815
"2002-05-08 05:00:00",18.6100006104,0.298999994993,88.6999969482,8.27999973297,7.38000011444,-0.10000000149,12.5799999237
"2002-05-08 06:00:00",18.4500007629,0.31400001049,87.5,8.19999980927,7.34999990463,-0.20000000298,12.5799999237
"2002-05-08 07:00:00",18.3500003815,0.226999998093,87.6999969482,8.23999977112,7.36999988556,-0.300000011921,12.5699996948
"2002-05-08 08:00:00",18.3099994659,0.291999995708,89.5,8.42000007629,7.38999986649,-0.40000000596,12.5699996948
"2002-05-08 09:00:00",18.4400005341,0.231000006199,93.0,8.72000026703,7.42999982834,-0.40000000596,12.6999998093
"2002-05-08 10:00:00",18.7600002289,0.228000000119,97.0,9.03999996185,7.48999977112,-0.5,13.0900001526
"2002-05-08 11:00:00",19.3400001526,0.386999994516,102.5,9.43000030518,7.57000017166,-0.5,13.1599998474
"2002-05-08 12:00:00",20.1900005341,0.425000011921,105.5,9.55000019073,7.57999992371,-0.600000023842,13.0900001526
"2002-05-08 13:00:00",21.0200004578,0.391999989748,107.0,9.52999973297,7.63000011444,-0.600000023842,13.0399999619
"2002-05-08 14:00:00",21.5499992371,0.36700001359,107.099998474,9.43999958038,7.63999986649,-0.600000023842,13.0200004578
"2002-05-08 15:00:00",21.6700000763,0.365999996662,103.5,9.10000038147,7.61999988556,-0.699999988079,13.0
"2002-05-08 16:00:00",21.3999996185,0.240999996662,100.800003052,8.90999984741,7.53999996185,-0.699999988079,12.9099998474
"2002-05-08 17:00:00",21.3600006104,0.184000000358,98.0999984741,8.68000030518,7.55000019073,-0.600000023842,12.8699998856
"2002-05-08 18:00:00",21.25,0.179000005126,95.5999984741,8.47999954224,7.53999996185,-0.699999988079,12.8000001907
"2002-05-08 19:00:00",20.9799995422,0.179000005126,93.4000015259,8.32999992371,7.48000001907,-0.800000011921,12.779999733
"2002-05-08 20:00:00",20.7800006866,0.184000000358,90.4000015259,8.09000015259,7.42999982834,-0.800000011921,12.7299995422
"2002-05-08 21:00:00",20.5799999237,0.208000004292,89.0,7.98999977112,7.40999984741,-0.800000011921,12.7100000381
"2002-05-08 22:00:00",20.4300003052,0.215000003576,87.9000015259,7.92000007629,7.40000009537,-0.699999988079,12.6800003052
"2002-05-08 23:00:00",20.3199996948,0.207000002265,88.5,8.0,7.42000007629,-0.699999988079,12.6700000763
"2002-05-09 00:00:00",20.2099990845,0.206000000238,88.0,7.96000003815,7.42999982834,-0.800000011921,12.6599998474
"2002-05-09 01:00:00",20.1399993896,0.418999999762,87.8000030518,7.94999980927,7.42000007629,-0.699999988079,12.6400003433
"2002-05-09 02:00:00",20.0100002289,0.229000002146,89.0,8.07999992371,7.42000007629,-0.40000000596,12.6199998856
"2002-05-09 03:00:00",19.8700008392,0.21400000155,87.8000030518,8.0,7.42000007629,-0.300000011921,12.6099996567
"2002-05-09 04:00:00",19.7000007629,0.204999998212,88.9000015259,8.13000011444,7.40999984741,-0.40000000596,12.5900001526
"2002-05-09 05:00:00",19.5300006866,0.201000005007,88.4000015259,8.10999965668,7.42000007629,-0.600000023842,12.5799999237
"2002-05-09 06:00:00",19.3700008392,0.197999998927,89.0,8.18999958038,7.42999982834,-0.40000000596,12.5600004196
"2002-05-09 07:00:00",19.2900009155,0.195999994874,89.6999969482,8.27000045776,7.44000005722,-0.5,12.5600004196
"2002-05-09 08:00:00",19.3099994659,0.196999996901,91.5,8.43000030518,7.44999980927,0.0,12.5699996948
"2002-05-09 09:00:00",19.4200000763,0.356000006199,92.9000015259,8.53999996185,7.46000003815,0.0,12.6400003433
"2002-05-09 10:00:00",19.8099994659,0.202999994159,97.0,8.85000038147,7.53999996185,13.6000003815,13.1700000763